Vertical_Velocity
-1 -0 1 -0 -2 -1 0 0 -1 1 -0 0 -0 1 1 1 1 1 2 2 0 -1 -2 -2 -3 -1 1 4 -6 -1 -0 -3 -2 -1 -0 -1 -1 -3 -3 2 -2 0 -2 -0 0 1 -1
-0 1 1 2 1 0 -1 -1 -0 -1 0 0 1 1 1 -0 -0 -1 -0 -1 1 -0 -1 0 -2 -1 -2 2 -0 -5 -3 -0 -2 -2 -1 -2 -1 -1 -1 -0 -2 1 -1 -1 0 2 -0
-1 0 2 2 0 -0 2 0 -0 0 0 0 0 1 0 0 0 0 -0 -1 1 -2 -1 -0 0 0 4 -1 -0 0 0 1 0 -1 -2 -1 1 -1 1 -3 4 -2 0 0 3 1 -4
1 1 -2 -3 -2 -2 -2 -1 0 0 0 1 -0 0 0 -0 0 2 1 -2 -1 1 -1 1 -1 -0 2 5 1 0 1 2 1 -1 -1 -0 1 -1 1 -2 3 -3 1 6 -2 -6 -1
0 1 -0 -0 -0 -1 0 -0 -0 -0 -0 0 1 0 -1 1 3 2 1 -2 -2 -1 -0 -2 -2 -3 -0 4 -0 2 2 0 -0 -1 -0 -0 1 1 1 -2 -2 4 -3 -4 7 -3 -3
-1 -1 -0 0 1 1 1 -0 -2 -2 -3 -3 -1 -2 -2 -5 -0 -0 -1 -2 -2 -0 0 -2 -1 -2 0 -1 -0 -0 3 1 1 1 -1 1 -3 0 0 2 0 -6 -5 2 2 8 -4
-1 -0 0 0 -2 -0 -0 -2 -2 -3 -2 -0 -2 -2 -0 -4 -3 -1 2 -2 -3 2 1 -1 -5 2 -1 1 2 4 0 -1 0 2 1 -4 -6 7 4 -4 -5 -1 -4 -3 9 4 -16
1 -1 -2 -1 0 -1 -1 -3 -2 -2 -2 -2 -3 -2 -1 -6 -1 -1 -1 -0 1 -1 21 -11 -0 3 3 -3 3 -3 0 -4 2 -0 -0 -3 -1 7 -0 -1 -6 -4 -4 9 5 0 -14
-1 1 -2 -0 -0 0 0 -0 -5 -3 -3 -2 -2 -2 -3 -7 -1 -2 -3 -3 -3 -2 2 5 -1 0 0 -1 -1 -1 -3 -0 -0 2 1 -8 3 6 -1 3 -0 -1 -3 3 -8 -1 2
-2 -1 -2 -2 -0 0 1 1 -0 -1 -0 -2 -2 1 -2 -0 -1 -4 -4 -3 -4 -4 -10 1 1 -3 -2 -4 -0 -1 -0 -0 0 -2 -2 -5 2 0 -2 5 -5 -4 3 -2 0 -7 -1
-0 -1 1 -1 -1 -1 1 1 -1 -1 -1 -1 -3 -2 -4 2 -0 -1 -3 -2 -2 -2 -24 -7 -3 -5 -0 -0 -2 7 -1 1 -3 -3 3 -4 -1 1 5 1 -4 1 4 -2 -3 -3 -10
-1 -1 -2 -1 -1 -1 -2 -0 -0 -2 -2 -1 -3 -2 -1 -6 1 -2 -3 -2 -2 -2 -3 -7 -4 -5 -2 -2 2 -2 -1 3 -0 -2 -1 11 -3 3 2 1 1 1 0 2 -1 2 -22
-5 -1 -0 1 0 -2 -0 -4 -2 -3 0 -1 -3 -2 0 -3 -3 -3 -3 -3 -13 10 4 -5 -4 -1 0 -2 0 -1 -0 2 1 -6 5 5 8 4 3 1 2 3 4 -5 -20 1 -9
-2 -3 -2 -3 -3 0 -1 -0 0 0 -2 -2 -3 -2 -2 -3 -3 -3 -1 -3 3 3 -1 -2 -3 -3 -4 9 0 2 -6 1 -0 -2 -4 1 6 9 12 7 3 5 6 10 -17 -1 -4
-4 -3 -0 -1 -4 -9 -4 -4 -2 -2 1 -1 -3 -8 0 -1 -1 -2 -2 -2 -3 16 7 1 -0 -3 7 7 1 1 3 -0 5 13 -1 -13 -4 2 3 5 9 -3 3 6 -1 -2 -6
-4 -1 -1 -1 -1 -1 -2 -5 -4 -4 -2 -2 5 6 -1 2 -2 -1 -4 8 1 3 3 -0 5 -0 1 4 -1 -2 0 -5 3 7 6 -7 -16 7 -1 2 -3 6 1 -3 1 -10 -8
-3 -1 -2 -2 -3 -3 -2 -4 -3 -4 -4 -2 1 5 4 4 2 1 2 1 3 7 10 1 1 2 2 2 2 -0 -10 1 -5 1 -2 -1 1 10 8 10 6 -3 -0 -0 9 0 -2
-3 -4 -4 -3 -0 -2 -4 -3 -5 -1 -10 0 1 0 -10 1 -1 -1 6 1 2 10 9 2 0 -1 1 3 -4 -2 1 8 2 -3 -0 -1 -16 -12 5 5 5 5 4 6 -1 2 -6
-2 -3 -5 -4 -8 -5 -4 -2 -4 -6 -10 -8 -9 -2 17 13 -2 6 1 4 -0 11 16 -1 -1 2 1 0 -7 -3 1 9 5 4 -5 4 -16 -11 -6 5 6 6 5 11 8 -0 -3
1 -4 -3 -0 -3 -4 -5 -4 -2 -1 -3 -9 -7 -10 2 5 9 6 7 6 9 10 2 10 -2 0 1 1 5 -14 -1 -2 -2 6 11 7 -4 2 2 7 3 3 3 5 7 0 5
-5 -4 -5 -2 -3 1 1 -2 2 -1 -1 -4 -9 -11 -4 -1 9 5 6 -3 -2 -2 -1 5 -5 4 3 -10 2 5 2 1 4 5 3 10 -8 2 6 5 3 -1 3 3 -1 7 -15
-3 -4 -4 -4 -4 -3 0 3 -0 2 2 1 11 3 -1 -11 2 14 15 19 -7 7 -10 5 -11 10 5 -9 12 -2 5 4 -3 6 6 11 1 1 -6 5 3 -9 1 8 5 -2 -7
-3 -2 -2 -2 -3 -4 -5 -5 4 -1 -5 5 3 -0 -2 8 2 -1 4 7 5 10 20 3 3 3 8 11 6 4 5 6 3 0 12 5 4 5 -15 4 5 -16 14 7 2 3 1
-3 -0 -3 -3 -4 0 1 2 3 12 14 4 12 -1 -2 -13 1 6 7 7 4 1 -4 0 -2 5 10 -2 4 9 11 2 1 6 9 3 9 14 -8 4 -8 4 4 4 3 2 2
-5 -3 -4 -4 3 1 -2 -0 6 6 3 4 6 3 12 12 3 -2 -0 -0 -0 8 -1 2 10 -5 2 7 8 -8 -7 -2 10 -0 1 3 6 -3 -0 2 -3 -5 3 1 6 1 4
-3 0 -0 -2 -3 -1 -0 -2 -2 2 -1 1 6 2 11 12 8 36 8 9 -7 10 1 9 6 -1 3 -2 -7 -8 -10 17 -3 -11 9 5 3 4 9 0 -8 0 -2 7 0 3 7
-2 -4 -5 -5 -3 -0 -0 2 2 -1 -1 -0 6 3 8 16 -15 10 4 14 -1 -4 -8 -1 -1 5 2 23 6 23 16 5 -4 -1 -1 5 0 9 9 5 -10 -1 1 -3 21 -4 -0
-7 -7 -5 -4 -4 -2 -3 -3 1 -1 -3 -6 0 -3 -8 -4 13 11 6 -2 -2 5 0 3 -0 4 -0 2 -4 3 -4 8 -1 -4 -6 -0 2 -4 -1 5 -4 1 -3 -1 10 7 3
-7 -7 -6 -5 -3 -1 -1 -10 -10 -13 -5 -4 -4 -6 8 21 2 -7 -0 -5 6 5 2 7 2 0 -7 -5 14 12 -4 -2 7 -8 11 -8 3 5 7 -2 -2 9 6 3 0 2 2
Height
5833 5831 5830 5828 5827 5825 5823 5822 5820 5818 5816 5814 5812 5810 5808 5806 5805 5803 5801 5799 5797 5795 5793 5791 5789 5788 5786 5785 5782 5781 5780 5778 5776 5774 5773 5772 5771 5769 5768 5766 5764 5764 5764 5762 5761 5760 5758
5834 5832 5830 5828 5826 5824 5822 5820 5818 5816 5814 5811 5809 5807 5805 5803 5800 5798 5796 5794 5792 5790 5788 5785 5783 5781 5780 5779 5776 5773 5772 5772 5770 5768 5767 5765 5764 5762 5762 5760 5757 5757 5757 5756 5756 5753 5751
5833 5831 5829 5827 5825 5823 5820 5818 5816 5814 5811 5809 5807 5804 5802 5799 5796 5794 5791 5787 5785 5782 5780 5778 5776 5775 5774 5771 5769 5766 5764 5762 5761 5760 5758 5757 5755 5755 5754 5753 5750 5749 5749 5748 5749 5746 5741
5832 5830 5829 5826 5824 5821 5819 5816 5813 5810 5808 5806 5803 5800 5797 5794 5791 5788 5785 5781 5778 5775 5772 5770 5768 5766 5766 5765 5761 5759 5756 5754 5753 5751 5750 5748 5746 5745 5745 5744 5741 5740 5738 5740 5740 5736 5734
5829 5827 5825 5823 5821 5818 5816 5812 5809 5806 5803 5800 5797 5793 5790 5787 5784 5781 5778 5774 5771 5769 5767 5764 5762 5758 5758 5756 5753 5751 5748 5746 5744 5743 5742 5740 5737 5736 5738 5736 5732 5731 5727 5728 5730 5731 5727
5825 5823 5821 5819 5816 5813 5810 5807 5804 5801 5797 5794 5791 5787 5783 5779 5777 5774 5770 5767 5764 5761 5759 5756 5753 5753 5749 5747 5745 5743 5740 5737 5735 5733 5732 5731 5727 5725 5730 5727 5723 5721 5719 5720 5722 5725 5718
5821 5819 5816 5814 5811 5808 5804 5801 5797 5794 5791 5787 5783 5780 5776 5771 5769 5766 5764 5759 5757 5755 5751 5747 5743 5743 5738 5737 5735 5733 5730 5727 5725 5723 5722 5718 5715 5718 5719 5715 5712 5713 5711 5710 5715 5713 5707
5815 5812 5810 5807 5804 5800 5797 5794 5790 5786 5783 5779 5774 5770 5767 5762 5759 5756 5753 5750 5747 5744 5746 5735 5733 5730 5729 5727 5724 5722 5721 5717 5714 5712 5710 5708 5705 5709 5705 5704 5702 5702 5700 5700 5701 5701 5697
5810 5807 5804 5800 5796 5792 5789 5786 5782 5777 5773 5769 5766 5762 5758 5753 5749 5745 5743 5740 5736 5733 5730 5733 5727 5723 5719 5716 5713 5711 5709 5707 5704 5702 5699 5695 5696 5694 5693 5691 5692 5691 5688 5690 5688 5688 5687
5804 5800 5797 5793 5789 5785 5781 5777 5773 5769 5764 5760 5755 5752 5749 5746 5742 5736 5733 5730 5726 5722 5717 5717 5716 5714 5712 5708 5705 5701 5697 5696 5694 5691 5688 5686 5684 5681 5678 5678 5679 5676 5679 5676 5676 5674 5675
5798 5794 5789 5785 5781 5777 5773 5769 5764 5759 5756 5751 5745 5742 5739 5734 5733 5727 5724 5719 5716 5713 5708 5707 5704 5700 5697 5696 5693 5690 5687 5684 5681 5678 5677 5674 5671 5669 5668 5667 5663 5664 5663 5663 5662 5661 5660
5792 5787 5782 5777 5772 5768 5764 5760 5755 5751 5747 5742 5737 5734 5731 5725 5721 5718 5713 5709 5706 5703 5697 5695 5691 5688 5686 5682 5679 5675 5673 5671 5668 5665 5662 5660 5657 5656 5654 5651 5650 5650 5649 5648 5647 5646 5645
5785 5779 5773 5768 5764 5759 5754 5751 5745 5740 5736 5732 5726 5722 5719 5715 5711 5706 5703 5699 5695 5690 5688 5683 5678 5674 5671 5667 5663 5661 5658 5656 5653 5649 5647 5644 5643 5642 5641 5639 5638 5636 5635 5633 5632 5631 5631
5777 5771 5765 5759 5754 5749 5744 5738 5734 5730 5726 5723 5718 5712 5708 5704 5699 5694 5689 5685 5680 5677 5670 5665 5662 5657 5654 5650 5647 5644 5642 5640 5636 5633 5630 5628 5629 5627 5627 5624 5621 5620 5619 5618 5614 5616 5617
5768 5761 5755 5750 5745 5740 5734 5729 5722 5718 5715 5711 5706 5701 5695 5691 5685 5680 5675 5669 5664 5659 5654 5648 5643 5639 5637 5633 5628 5625 5623 5622 5619 5617 5615 5610 5611 5611 5608 5606 5606 5605 5604 5603 5599 5599 5599
5757 5750 5744 5738 5732 5727 5722 5717 5712 5707 5702 5697 5693 5688 5680 5674 5667 5662 5657 5653 5646 5639 5633 5629 5624 5620 5616 5613 5610 5606 5604 5602 5600 5599 5595 5594 5593 5595 5592 5589 5588 5589 5587 5585 5582 5582 5581
5745 5738 5732 5726 5720 5714 5709 5705 5699 5692 5686 5682 5676 5669 5663 5657 5650 5644 5638 5632 5625 5618 5612 5607 5603 5599 5597 5594 5590 5587 5585 5583 5581 5579 5577 5575 5575 5579 5576 5574 5572 5570 5569 5566 5564 5562 5561
5733 5727 5721 5715 5709 5703 5697 5690 5683 5677 5670 5664 5659 5652 5642 5635 5630 5621 5615 5608 5603 5597 5591 5585 5582 5578 5575 5571 5568 5566 5569 5566 5564 5562 5559 5557 5554 5558 5561 5555 5554 5552 5551 5548 5544 5545 5543
5720 5713 5709 5704 5699 5691 5684 5677 5669 5660 5652 5645 5638 5632 5624 5615 5605 5598 5589 5583 5576 5573 5567 5561 5557 5554 5551 5551 5547 5548 5548 5549 5546 5544 5540 5539 5534 5536 5540 5537 5534 5533 5531 5529 5527 5526 5524
5707 5702 5697 5691 5683 5676 5668 5660 5650 5640 5630 5623 5614 5606 5598 5590 5579 5570 5561 5558 5552 5549 5544 5538 5537 5534 5532 5531 5529 5526 5528 5526 5526 5525 5521 5515 5512 5517 5518 5514 5514 5516 5514 5512 5510 5509 5510
5697 5692 5684 5676 5668 5659 5649 5640 5630 5618 5606 5596 5586 5579 5570 5564 5552 5541 5533 5528 5526 5523 5519 5518 5516 5515 5510 5508 5508 5505 5503 5503 5505 5505 5502 5499 5496 5499 5500 5499 5498 5498 5500 5498 5496 5497 5492
5683 5675 5668 5659 5650 5641 5630 5617 5605 5593 5579 5567 5553 5541 5532 5529 5523 5514 5512 5507 5501 5502 5494 5498 5489 5491 5487 5485 5485 5485 5483 5483 5484 5485 5486 5484 5481 5481 5484 5485 5483 5481 5485 5484 5484 5483 5480
5668 5660 5650 5641 5630 5619 5608 5594 5580 5564 5547 5532 5517 5508 5494 5496 5489 5490 5490 5481 5478 5472 5473 5468 5467 5465 5465 5466 5465 5467 5466 5467 5467 5470 5471 5470 5469 5469 5467 5471 5470 5467 5474 5472 5469 5469 5469
5652 5642 5632 5620 5608 5595 5582 5568 5551 5537 5518 5503 5491 5479 5469 5465 5463 5465 5464 5464 5460 5460 5455 5457 5455 5454 5456 5453 5454 5454 5453 5455 5455 5457 5457 5455 5458 5458 5455 5457 5453 5456 5458 5458 5458 5458 5458
5634 5624 5611 5598 5585 5570 5555 5539 5522 5505 5490 5476 5468 5462 5458 5455 5453 5454 5453 5452 5451 5449 5447 5445 5448 5444 5443 5444 5442 5442 5446 5446 5448 5445 5445 5444 5445 5444 5444 5445 5445 5445 5447 5447 5447 5448 5449
5615 5602 5588 5574 5559 5542 5524 5507 5492 5477 5464 5456 5452 5447 5447 5445 5445 5445 5444 5443 5442 5440 5439 5437 5435 5433 5432 5434 5436 5435 5436 5437 5438 5436 5436 5434 5435 5436 5437 5436 5435 5436 5437 5437 5437 5440 5441
5595 5581 5566 5550 5534 5518 5502 5487 5471 5459 5449 5445 5441 5436 5435 5435 5440 5439 5437 5435 5434 5433 5431 5430 5428 5427 5428 5429 5429 5430 5430 5429 5429 5428 5428 5428 5427 5428 5428 5427 5427 5429 5429 5430 5432 5436 5432
5575 5559 5544 5528 5513 5498 5483 5471 5460 5452 5444 5440 5436 5433 5432 5432 5434 5432 5431 5429 5426 5425 5424 5425 5425 5424 5423 5423 5425 5424 5423 5423 5423 5422 5421 5420 5419 5420 5420 5420 5420 5421 5422 5423 5424 5422 5421
5555 5539 5524 5512 5500 5488 5477 5469 5460 5454 5446 5441 5438 5434 5431 5430 5428 5427 5425 5424 5422 5420 5419 5418 5419 5419 5419 5419 5419 5419 5418 5416 5415 5414 5412 5412 5413 5412 5414 5413 5414 5414 5415 5414 5413 5413 5412